TimeCST,TemperatureF,Dew PointF,Humidity,Sea Level PressureIn,VisibilityMPH,Wind Direction,Wind SpeedMPH,Gust SpeedMPH,PrecipitationIn,Events,Conditions,WindDirDegrees,DateUTC
12:15 AM,42.8,25.7,51,29.92,10.0,West,12.7,-,N/A,,Clear,260,2013-01-19 06:15:00
12:35 AM,41.2,25.7,54,29.92,10.0,West,10.4,-,N/A,,Clear,270,2013-01-19 06:35:00
12:55 AM,39.0,25.5,58,29.92,10.0,West,10.4,-,N/A,,Clear,280,2013-01-19 06:55:00
1:15 AM,38.7,24.8,58,29.91,10.0,West,8.1,-,N/A,,Clear,280,2013-01-19 07:15:00
1:35 AM,38.3,24.4,57,29.92,10.0,WSW,10.4,-,N/A,,Clear,250,2013-01-19 07:35:00
1:55 AM,37.8,25.7,62,29.93,10.0,West,11.5,-,N/A,,Clear,270,2013-01-19 07:55:00
2:15 AM,35.8,25.7,67,29.93,10.0,West,11.5,-,N/A,,Clear,260,2013-01-19 08:15:00
2:35 AM,35.8,25.2,65,29.93,10.0,West,13.8,19.6,N/A,,Clear,280,2013-01-19 08:35:00
2:55 AM,37.6,23.9,58,29.94,10.0,WNW,11.5,-,N/A,,Clear,290,2013-01-19 08:55:00
3:15 AM,38.7,23.7,55,29.94,10.0,WNW,9.2,-,N/A,,Clear,290,2013-01-19 09:15:00
3:35 AM,37.8,23.5,57,29.94,10.0,West,13.8,-,N/A,,Clear,280,2013-01-19 09:35:00
3:55 AM,36.1,23.5,60,29.93,10.0,WNW,10.4,-,N/A,,Clear,290,2013-01-19 09:55:00
4:15 AM,34.9,23.4,63,29.93,10.0,WNW,9.2,-,N/A,,Clear,290,2013-01-19 10:15:00
4:35 AM,35.2,23.4,62,29.93,10.0,WNW,10.4,-,N/A,,Clear,300,2013-01-19 10:35:00
4:55 AM,34.7,23.5,64,29.94,10.0,NW,9.2,-,N/A,,Clear,310,2013-01-19 10:55:00
5:15 AM,36.7,23.9,60,29.96,10.0,WNW,9.2,-,N/A,,Clear,290,2013-01-19 11:15:00
5:35 AM,36.9,23.5,59,29.96,10.0,WNW,9.2,-,N/A,,Clear,300,2013-01-19 11:35:00
5:55 AM,36.1,23.2,59,29.96,10.0,WNW,6.9,-,N/A,,Clear,300,2013-01-19 11:55:00
7:15 AM,37.4,23.5,57,30.00,10.0,NW,13.8,20.7,N/A,,Clear,310,2013-01-19 13:15:00
7:55 AM,35.8,23.9,62,30.02,10.0,WNW,11.5,-,N/A,,Clear,300,2013-01-19 13:55:00
8:15 AM,35.4,23.9,63,30.04,10.0,WNW,12.7,-,N/A,,Clear,300,2013-01-19 14:15:00
8:35 AM,36.7,23.9,60,30.05,10.0,WNW,15.0,20.7,N/A,,Clear,300,2013-01-19 14:35:00
9:35 AM,40.1,25.5,56,30.08,10.0,WNW,11.5,-,N/A,,Clear,300,2013-01-19 15:35:00
9:55 AM,41.7,25.5,53,30.09,10.0,WNW,9.2,-,N/A,,Clear,300,2013-01-19 15:55:00
10:15 AM,43.3,25.7,50,30.10,10.0,WNW,10.4,-,N/A,,Clear,300,2013-01-19 16:15:00
10:35 AM,44.8,26.4,49,30.11,10.0,WNW,10.4,-,N/A,,Clear,300,2013-01-19 16:35:00
11:15 AM,48.2,28.2,46,30.12,10.0,NW,12.7,-,N/A,,Clear,310,2013-01-19 17:15:00
11:35 AM,49.5,28.6,45,30.11,10.0,NW,11.5,-,N/A,,Clear,310,2013-01-19 17:35:00
11:55 AM,50.7,28.6,42,30.11,10.0,NW,11.5,-,N/A,,Clear,310,2013-01-19 17:55:00
12:15 PM,51.4,27.5,40,30.10,10.0,NW,12.7,-,N/A,,Clear,310,2013-01-19 18:15:00
12:35 PM,52.5,27.3,38,30.10,10.0,NW,12.7,-,N/A,,Clear,310,2013-01-19 18:35:00
12:55 PM,53.8,26.4,35,30.10,10.0,NW,13.8,20.7,N/A,,Clear,320,2013-01-19 18:55:00
1:15 PM,54.5,26.4,34,30.09,10.0,NW,16.1,19.6,N/A,,Clear,310,2013-01-19 19:15:00
1:35 PM,55.0,27.5,35,30.09,10.0,NW,10.4,-,N/A,,Clear,320,2013-01-19 19:35:00
1:55 PM,55.6,25.5,31,30.09,10.0,NNW,16.1,23.0,N/A,,Clear,330,2013-01-19 19:55:00
2:15 PM,56.3,25.5,31,30.09,10.0,NNW,15.0,20.7,N/A,,Clear,330,2013-01-19 20:15:00
2:35 PM,56.3,25.3,30,30.09,10.0,NNW,11.5,18.4,N/A,,Clear,330,2013-01-19 20:35:00
2:55 PM,56.5,25.3,30,30.10,10.0,NW,11.5,17.3,N/A,,Clear,320,2013-01-19 20:55:00
3:15 PM,56.5,25.2,30,30.10,10.0,NNW,10.4,19.6,N/A,,Clear,330,2013-01-19 21:15:00
3:35 PM,55.9,26.2,32,30.11,10.0,NNW,9.2,-,N/A,,Clear,330,2013-01-19 21:35:00
3:55 PM,55.9,27.0,33,30.11,10.0,NW,11.5,18.4,N/A,,Clear,320,2013-01-19 21:55:00
4:15 PM,54.9,25.0,32,30.13,10.0,NW,11.5,-,N/A,,Clear,320,2013-01-19 22:15:00
4:35 PM,53.6,25.9,34,30.13,10.0,NNW,11.5,-,N/A,,Clear,340,2013-01-19 22:35:00
4:55 PM,52.0,25.7,36,30.14,10.0,NNW,11.5,-,N/A,,Clear,330,2013-01-19 22:55:00
5:15 PM,49.5,26.2,40,30.15,10.0,NNW,10.4,-,N/A,,Clear,340,2013-01-19 23:15:00
5:35 PM,46.8,25.9,44,30.16,10.0,North,9.2,-,N/A,,Clear,350,2013-01-19 23:35:00
5:55 PM,45.9,23.9,42,30.16,10.0,North,9.2,-,N/A,,Clear,350,2013-01-19 23:55:00
6:15 PM,41.7,25.3,52,30.17,10.0,North,8.1,-,N/A,,Clear,360,2013-01-20 00:15:00
6:35 PM,39.4,26.2,59,30.17,10.0,North,9.2,-,N/A,,Clear,360,2013-01-20 00:35:00
6:55 PM,38.5,26.2,61,30.19,10.0,North,9.2,-,N/A,,Clear,360,2013-01-20 00:55:00
7:15 PM,38.5,26.6,62,30.19,10.0,North,9.2,-,N/A,,Clear,10,2013-01-20 01:15:00
7:35 PM,37.8,26.4,64,30.20,10.0,North,8.1,-,N/A,,Clear,350,2013-01-20 01:35:00
7:55 PM,39.6,25.7,58,30.21,10.0,North,9.2,-,N/A,,Clear,350,2013-01-20 01:55:00
8:15 PM,37.0,26.6,66,30.21,10.0,North,10.4,-,N/A,,Clear,10,2013-01-20 02:15:00
8:35 PM,35.4,27.1,72,30.22,10.0,North,5.8,-,N/A,,Clear,10,2013-01-20 02:35:00
8:55 PM,35.6,26.6,70,30.23,10.0,North,5.8,-,N/A,,Clear,10,2013-01-20 02:55:00
9:15 PM,34.7,26.2,71,30.23,10.0,North,8.1,-,N/A,,Clear,10,2013-01-20 03:15:00
9:35 PM,33.3,26.1,75,30.24,10.0,NNE,5.8,-,N/A,,Clear,20,2013-01-20 03:35:00
9:55 PM,32.4,26.1,78,30.24,10.0,NNE,8.1,-,N/A,,Clear,20,2013-01-20 03:55:00
10:15 PM,32.0,25.9,78,30.26,10.0,NNE,6.9,-,N/A,,Clear,30,2013-01-20 04:15:00
10:35 PM,32.0,25.9,78,30.26,10.0,North,4.6,-,N/A,,Clear,10,2013-01-20 04:35:00
10:55 PM,31.5,25.7,79,30.26,10.0,NNE,6.9,-,N/A,,Clear,20,2013-01-20 04:55:00
11:15 PM,30.7,25.7,82,30.27,10.0,NNE,8.1,-,N/A,,Clear,30,2013-01-20 05:15:00
11:35 PM,32.2,26.2,79,30.27,10.0,NE,10.4,-,N/A,,Clear,40,2013-01-20 05:35:00
11:55 PM,32.0,26.6,80,30.26,10.0,NE,12.7,-,N/A,,Clear,50,2013-01-20 05:55:00